Date String (YYYY-MM-DD hh:mm:ss) UTC,Instrument flags,Ambient pressure (hPa),Sample flow (lpm),Bypass flow (lpm),Sample temperature (°C),Ambient temperature (°C),ASC tube jacket temperature (°C),LED temperature (°C),Box temperature (°C),Sample RH (%),Span deviation,Mass concentration (μg/m³),Mass concentration (μg/m³),Mass concentration (μg/m³)
DateTimeUTC,F1_M11,P_M11,Q1_M11,Q2_M11,T1_M11,T2_M11,T3_M11,T4_M11,T5_M11,U1_M11,ZSPAN_M11,X2_M11,X0_M11,X1_M11
2022-09-09 05:00:00,,0822.5,5.00,0.00,30.0,28.5,00.0,38.7,31.9,16.9,0000.0,0009.06,0019.74,0007.75
2022-09-09 05:01:00,,0822.6,5.02,0.00,30.0,27.0,00.0,38.7,31.7,17.6,0000.0,0009.04,0018.97,0007.73
2022-09-09 05:02:00,,0822.6,5.00,0.00,29.9,26.4,00.0,38.6,31.6,19.3,0000.0,0009.01,0019.29,0007.73
2022-09-09 05:03:00,,0822.6,5.01,0.00,29.8,26.6,00.0,38.6,31.5,20.1,0000.0,0009.01,0019.05,0007.77
2022-09-09 05:04:00,,0822.6,5.00,0.00,29.7,26.9,00.0,38.5,31.4,20.1,0000.0,0009.07,0018.00,0007.83
2022-09-09 05:05:00,,0822.5,5.00,0.00,29.7,27.3,00.0,38.5,31.4,20.3,0000.0,0009.12,0018.46,0007.88
2022-09-09 05:06:00,,0822.4,5.01,0.00,29.7,27.6,00.0,38.5,31.4,20.5,0000.0,0009.23,0020.02,0007.92
2022-09-09 05:07:00,,0822.4,4.99,0.00,29.7,27.9,00.0,38.5,31.5,20.5,0000.5,0009.28,0020.55,0007.98
2022-09-09 05:08:00,,0822.4,5.01,0.00,29.7,28.1,00.0,38.5,31.5,20.5,0002.1,0009.33,0021.23,0008.06
2022-09-09 05:09:00,,0822.4,5.00,0.00,29.7,28.2,00.0,38.5,31.5,20.6,0001.4,0009.43,0021.42,0008.14
2022-09-09 05:10:00,,0822.4,5.00,0.00,29.7,28.4,00.0,38.5,31.6,20.1,0001.2,0009.61,0022.42,0008.22
2022-09-09 05:11:00,,0822.6,5.01,0.00,29.8,28.5,00.0,38.5,31.6,19.9,0002.0,0009.75,0023.16,0008.34
2022-09-09 05:12:00,,0822.6,4.98,0.00,29.8,28.6,00.0,38.5,31.7,19.8,0001.5,0009.95,0023.27,0008.49
2022-09-09 05:13:00,,0822.6,5.01,0.00,29.8,28.7,00.0,38.5,31.7,19.9,0001.6,0010.16,0023.49,0008.63
2022-09-09 05:14:00,,0822.6,4.99,0.00,29.8,28.8,00.0,38.5,31.8,19.7,0001.1,0010.25,0025.08,0008.71
2022-09-09 05:15:00,,0822.6,5.01,0.00,29.9,28.9,00.0,38.6,31.7,19.5,0000.8,0010.33,0025.41,0008.82
2022-09-09 05:16:00,,0822.6,5.01,0.00,29.9,28.9,00.0,38.6,31.8,19.5,0000.9,0010.43,0024.81,0008.94
2022-09-09 05:17:00,,0822.6,4.99,0.00,29.9,29.0,00.0,38.6,31.9,19.2,0001.0,0010.56,0023.27,0009.08
2022-09-09 05:18:00,,0822.7,5.01,0.00,30.0,29.1,00.0,38.6,31.9,19.2,0001.2,0010.75,0023.18,0009.22
2022-09-09 05:19:00,,0822.7,4.99,0.00,30.0,29.1,00.0,38.7,31.9,19.2,0002.1,0010.90,0022.55,0009.36
2022-09-09 05:20:00,,0822.7,4.99,0.00,30.0,28.0,00.0,38.7,31.9,19.1,0002.5,0011.01,0021.94,0009.49
2022-09-09 05:21:00,,0822.8,5.02,0.00,29.9,26.6,00.0,38.6,31.6,19.1,0002.7,0011.12,0021.40,0009.66
2022-09-09 05:22:00,,0822.8,4.99,0.00,29.9,26.3,00.0,38.6,31.6,19.1,0002.6,0011.23,0020.93,0009.76
2022-09-09 05:23:00,,0822.8,5.00,0.00,29.8,26.5,00.0,38.5,31.4,19.2,0003.1,0011.27,0020.87,0009.80
2022-09-09 05:24:00,,0823.0,4.99,0.00,29.7,26.9,00.0,38.5,31.4,19.5,0003.4,0011.29,0020.46,0009.83
2022-09-09 05:25:00,,0822.9,5.01,0.00,29.7,27.2,00.0,38.5,31.4,19.7,0003.3,0011.40,0019.39,0009.90
2022-09-09 05:26:00,,0823.1,4.99,0.00,29.7,27.6,00.0,38.5,31.4,19.7,0003.6,0011.44,0018.86,0009.95
2022-09-09 05:27:00,,0823.2,5.01,0.00,29.7,27.9,00.0,38.5,31.4,19.9,0003.5,0011.48,0019.06,0009.96
2022-09-09 05:28:00,,0823.3,5.00,0.00,29.7,28.1,00.0,38.5,31.5,20.3,0003.4,0011.60,0019.60,0010.03
2022-09-09 05:29:00,,0823.4,5.00,0.00,29.7,28.2,00.0,38.5,31.5,21.6,0003.2,0012.09,0022.77,0010.25
2022-09-09 05:30:00,,0823.6,5.00,0.00,29.7,28.4,00.0,38.5,31.6,22.4,0003.4,0013.05,0028.37,0010.67
2022-09-09 05:31:00,,0823.7,5.00,0.00,29.7,28.5,00.0,38.5,31.6,22.6,0003.2,0014.47,0038.76,0011.18
2022-09-09 05:32:00,,0823.8,4.98,0.00,29.8,28.6,00.0,38.5,31.7,22.8,0003.4,0015.95,0048.13,0011.65
2022-09-09 05:33:00,,0823.9,5.01,0.00,29.8,28.7,00.0,38.5,31.7,23.0,0002.9,0017.52,0056.41,0012.16
2022-09-09 05:34:00,,0823.9,5.00,0.00,29.8,28.8,00.0,38.5,31.7,23.0,0002.7,0019.57,0069.89,0012.81
2022-09-09 05:35:00,,0824.0,4.99,0.00,29.8,28.8,00.0,38.6,31.8,23.1,0002.7,0021.82,0086.07,0013.55
2022-09-09 05:36:00,,0823.9,5.01,0.00,29.9,28.9,00.0,38.6,31.8,23.0,0002.4,0024.36,0101.52,0014.30
2022-09-09 05:37:00,,0823.9,5.00,0.00,29.9,28.9,00.0,38.6,31.8,23.0,0002.2,0027.13,0120.44,0015.03
2022-09-09 05:38:00,,0823.9,5.00,0.00,29.9,28.9,00.0,38.6,31.8,23.0,0002.2,0030.23,0140.21,0015.79
2022-09-09 05:39:00,,0824.0,5.01,0.00,30.0,29.0,00.0,38.6,31.9,22.8,0002.4,0032.29,0153.63,0016.49
2022-09-09 05:40:00,,0824.0,4.99,0.00,30.0,29.0,00.0,38.7,31.9,22.7,0002.7,0033.78,0161.66,0016.99
2022-09-09 05:41:00,,0824.1,5.00,0.00,30.0,29.0,00.0,38.7,31.9,22.7,0002.9,0034.90,0166.29,0017.28
2022-09-09 05:42:00,,0824.0,5.00,0.00,30.0,29.1,00.0,38.7,32.0,22.7,0002.7,0035.60,0166.94,0017.45
2022-09-09 05:43:00,,0824.0,5.00,0.00,30.1,29.1,00.0,38.8,32.0,22.7,0002.4,0035.92,0166.64,0017.59
2022-09-09 05:44:00,,0824.1,4.99,0.00,30.1,29.1,00.0,38.8,32.0,22.7,0002.9,0036.15,0170.19,0017.67
2022-09-09 05:45:00,,0824.2,5.01,0.00,30.1,29.2,00.0,38.8,32.0,22.8,0002.8,0036.04,0168.87,0017.72
2022-09-09 05:46:00,,0824.3,4.99,0.00,30.2,29.2,00.0,38.8,32.0,22.9,0002.8,0035.76,0164.61,0017.69
2022-09-09 05:47:00,,0824.4,4.99,0.00,30.2,29.2,00.0,38.9,32.1,22.9,0003.3,0035.12,0160.21,0017.62
2022-09-09 05:48:00,,0824.4,5.00,0.00,30.2,29.2,00.0,38.9,32.1,23.0,0003.5,0034.32,0152.20,0017.54
2022-09-09 05:49:00,,0824.5,5.00,0.00,30.2,29.2,00.0,38.9,32.1,22.9,0003.7,0033.08,0141.33,0017.43
2022-09-09 05:50:00,,0824.7,5.00,0.00,30.2,29.3,00.0,38.9,32.1,22.9,0003.7,0032.68,0136.24,0017.35
2022-09-09 05:51:00,,0824.7,5.00,0.00,30.3,29.3,00.0,39.0,32.1,22.9,0003.6,0032.46,0132.10,0017.30
2022-09-09 05:52:00,,0824.7,5.00,0.00,30.3,29.3,00.0,39.0,32.2,22.9,0003.2,0032.33,0129.98,0017.28
2022-09-09 05:53:00,,0824.7,4.98,0.00,30.3,29.3,00.0,39.0,32.2,23.0,0003.1,0031.95,0130.15,0017.20
2022-09-09 05:54:00,,0824.6,5.00,0.00,30.3,29.4,00.0,39.0,32.2,23.2,0003.2,0031.40,0127.88,0017.08
2022-09-09 05:55:00,,0824.7,5.00,0.00,30.4,29.4,00.0,39.1,32.2,23.2,0003.2,0031.04,0125.45,0017.01
2022-09-09 05:56:00,,0824.8,5.01,0.00,30.4,29.4,00.0,39.1,32.3,23.2,0003.1,0030.57,0120.08,0016.94
2022-09-09 05:57:00,,0824.9,4.98,0.00,30.4,29.4,00.0,39.1,32.3,23.3,0003.2,0029.95,0113.84,0016.84
2022-09-09 05:58:00,,0825.1,5.01,0.00,30.4,29.4,00.0,39.1,32.3,23.3,0002.9,0029.61,0108.74,0016.74
2022-09-09 05:59:00,,0825.2,5.00,0.00,30.4,29.4,00.0,39.1,32.3,23.4,0002.8,0029.10,0102.97,0016.67
